Weather History for PAFE - August, 2014

Change the Weather History Date:

Monday, August 11, 2014

  Actual Average (WUND) Record (WUND)
Temperature  
Mean Temperature 64 °F -  
Max Temperature 71 °F - - (-1)
Min Temperature 57 °F - - (-1)
Degree Days  
Heating Degree Days 1    
Growing Degree Days 14 (Base 50)    
Moisture  
Dew Point 59 °F    
Average Humidity 89    
Maximum Humidity 94    
Minimum Humidity 73    
Precipitation  
Precipitation 0.34 in - - ()
Sea Level Pressure  
Sea Level Pressure 29.97 in    
Wind  
Wind Speed 3 mph (SE)    
Max Wind Speed 10 mph    
Max Gust Speed -    
Visibility 9 miles    
Events      
Averages and records for this station are not official NWS values.
T = Trace of Precipitation, MM = Missing Value Source: NWS Daily Summary

Daily Weather History Graph

Daily Weather History Graph

Search for Another Location

Airport or City:

Trip Planner

Search our weather history database for the weather conditions in past years. The results will help you decide how hot, cold, wet, or windy it might be!

Date:

Astronomy

Aug. 11, 2014 Rise Set
Actual Time 5:15 AM AKDT 8:45 PM AKDT
Civil Twilight 4:28 AM AKDT 9:31 PM AKDT
Nautical Twilight 3:23 AM AKDT 10:35 PM AKDT
Astronomical Twilight 1:33 AM AKDT 12:42 AM AKDT
Moon 8:44 PM AKDT (8/11) 6:54 AM AKDT (8/11)
Length of Visible Light 17h 02m
Length of Day
15h 29m
Full, 98% of the Moon is Illuminated
Aug 11
Full
Aug 17
Last Quarter
Aug 25
New
Sep 2
First Quarter
Sep 8
Full

Hourly Weather History & Observations

Time (AKDT) Temp. Dew Point Humidity Pressure Visibility Wind Dir Wind Speed Gust Speed Precip Events Conditions
12:16 AM 60.8 °F 57.2 °F 88% 30.05 in 10.0 mi SSE 4.6 mph - N/A   Overcast
12:36 AM 60.8 °F 57.2 °F 88% 30.04 in 5.0 mi Calm Calm - 0.04 in   Overcast
12:56 AM 60.8 °F 57.2 °F 88% 30.04 in 10.0 mi SE 3.5 mph - 0.04 in   Mostly Cloudy
1:16 AM 60.8 °F 57.2 °F 88% 30.04 in 10.0 mi SSE 4.6 mph - 0.01 in   Overcast
1:36 AM 60.8 °F 57.2 °F 88% 30.04 in 9.0 mi SSE 4.6 mph - 0.02 in   Overcast
1:56 AM 59.0 °F 57.2 °F 94% 30.04 in 9.0 mi SSE 4.6 mph - 0.03 in   Overcast
2:16 AM 59.0 °F 57.2 °F 94% 30.04 in 10.0 mi South 3.5 mph - 0.01 in   Overcast
2:36 AM 59.0 °F 57.2 °F 94% 30.03 in 9.0 mi ESE 3.5 mph - 0.01 in   Overcast
2:56 AM 60.8 °F 57.2 °F 88% 30.03 in 8.0 mi SE 9.2 mph - 0.02 in   Overcast
3:16 AM 60.8 °F 57.2 °F 88% 30.03 in 6.0 mi ESE 8.1 mph - 0.01 in   Overcast
3:36 AM 60.8 °F 57.2 °F 88% 30.02 in 5.0 mi ESE 4.6 mph - 0.02 in   Mostly Cloudy
3:56 AM 60.8 °F 57.2 °F 88% 30.02 in 5.0 mi Calm Calm - 0.03 in   Overcast
4:16 AM 60.8 °F 57.2 °F 88% 30.03 in 4.0 mi SSE 3.5 mph - 0.05 in   Overcast
4:36 AM 60.8 °F 57.2 °F 88% 30.02 in 6.0 mi Calm Calm - 0.08 in   Overcast
4:56 AM 60.8 °F 57.2 °F 88% 30.02 in 10.0 mi SE 8.1 mph - 0.09 in   Overcast
5:16 AM 60.8 °F 57.2 °F 88% 30.02 in 6.0 mi SE 6.9 mph - 0.02 in   Overcast
5:36 AM 60.8 °F 57.2 °F 88% 30.01 in 9.0 mi SE 6.9 mph - 0.04 in   Overcast
5:56 AM 60.8 °F 57.2 °F 88% 30.02 in 9.0 mi ESE 5.8 mph - 0.05 in   Overcast
6:16 AM 60.8 °F 57.2 °F 88% 30.02 in 6.0 mi SE 5.8 mph - 0.02 in   Overcast
6:36 AM 60.8 °F 57.2 °F 88% 30.01 in 5.0 mi ESE 6.9 mph - 0.04 in   Overcast
6:56 AM 60.8 °F 57.2 °F 88% 30.01 in 10.0 mi ESE 6.9 mph - 0.04 in   Overcast
7:16 AM 60.8 °F 59.0 °F 94% 30.01 in 10.0 mi East 5.8 mph - N/A   Overcast
7:36 AM 62.6 °F 59.0 °F 88% 30.01 in 10.0 mi ESE 4.6 mph - N/A   Overcast
7:56 AM 62.6 °F 59.0 °F 88% 30.01 in 10.0 mi SE 3.5 mph - N/A   Overcast
8:16 AM 62.6 °F 60.8 °F 94% 30.01 in 10.0 mi Calm Calm - N/A   Overcast
8:36 AM 62.6 °F 60.8 °F 94% 30.01 in 10.0 mi Calm Calm - 0.01 in   Overcast
8:56 AM 60.8 °F 59.0 °F 94% 30.01 in 5.0 mi Calm Calm - 0.01 in   Overcast
9:16 AM 62.6 °F 60.8 °F 94% 30.00 in 5.0 mi Calm Calm - 0.01 in   Overcast
9:36 AM 62.6 °F 60.8 °F 94% 30.00 in 8.0 mi ESE 10.4 mph - 0.02 in   Overcast
9:56 AM 62.6 °F 60.8 °F 94% 30.00 in 10.0 mi SE 5.8 mph - 0.02 in   Overcast
10:16 AM 62.6 °F 60.8 °F 94% 30.00 in 10.0 mi South 4.6 mph - N/A   Overcast
10:36 AM 62.6 °F 60.8 °F 94% 29.99 in 9.0 mi SE 4.6 mph - N/A   Overcast
10:56 AM 62.6 °F 60.8 °F 94% 29.99 in 4.0 mi Calm Calm - N/A   Overcast
11:16 AM 64.4 °F 60.8 °F 88% 29.99 in 10.0 mi South 3.5 mph - N/A   Overcast
11:36 AM 64.4 °F 62.6 °F 94% 29.98 in 10.0 mi South 4.6 mph - N/A   Overcast
11:56 AM 64.4 °F 60.8 °F 88% 29.98 in 10.0 mi South 3.5 mph - N/A   Overcast
12:16 PM 64.4 °F 62.6 °F 94% 29.97 in 10.0 mi Calm Calm - 0.01 in   Overcast
12:36 PM 64.4 °F 62.6 °F 94% 29.97 in 10.0 mi Calm Calm - 0.01 in   Overcast
12:56 PM 66.2 °F 64.4 °F 94% 29.97 in 10.0 mi SE 6.9 mph - 0.01 in   Overcast
1:16 PM 66.2 °F 64.4 °F 94% 29.96 in 10.0 mi ESE 8.1 mph - N/A   Overcast
1:36 PM 64.4 °F 60.8 °F 88% 29.96 in 10.0 mi Calm Calm - N/A   Overcast
1:56 PM 64.4 °F 62.6 °F 94% 29.95 in 10.0 mi Calm Calm - N/A   Overcast
2:16 PM 66.2 °F 62.6 °F 88% 29.95 in 10.0 mi South 3.5 mph - N/A   Overcast
2:36 PM 69.8 °F 64.4 °F 83% 29.95 in 10.0 mi South 4.6 mph - N/A   Mostly Cloudy
2:56 PM 66.2 °F 62.6 °F 88% 29.95 in 10.0 mi Calm Calm - N/A   Mostly Cloudy
3:16 PM 64.4 °F 60.8 °F 88% 29.94 in 10.0 mi Calm Calm - N/A   Mostly Cloudy
3:36 PM 69.8 °F 64.4 °F 83% 29.93 in 10.0 mi SSE 5.8 mph - N/A   Scattered Clouds
3:56 PM 69.8 °F 64.4 °F 83% 29.92 in 10.0 mi South 4.6 mph - N/A   Partly Cloudy
4:16 PM 71.6 °F 64.4 °F 78% 29.92 in 10.0 mi South 4.6 mph - N/A   Partly Cloudy
4:36 PM 71.6 °F 64.4 °F 78% 29.92 in 10.0 mi South 3.5 mph - N/A   Mostly Cloudy
4:56 PM 69.8 °F 62.6 °F 78% 29.91 in 10.0 mi Calm Calm - N/A   Scattered Clouds
5:16 PM 69.8 °F 62.6 °F 78% 29.91 in 10.0 mi Calm Calm - N/A   Mostly Cloudy
5:36 PM 69.8 °F 62.6 °F 78% 29.92 in 10.0 mi Calm Calm - N/A   Mostly Cloudy
5:56 PM 69.8 °F 60.8 °F 73% 29.91 in 10.0 mi Calm Calm - N/A   Mostly Cloudy
6:16 PM 66.2 °F 62.6 °F 88% 29.90 in 10.0 mi Calm Calm - N/A   Scattered Clouds
6:36 PM 64.4 °F 59.0 °F 83% 29.90 in 10.0 mi Calm Calm - N/A   Partly Cloudy
6:56 PM 66.2 °F 60.8 °F 83% 29.91 in 10.0 mi Calm Calm - N/A   Clear
7:16 PM 60.8 °F 55.4 °F 82% 29.91 in 10.0 mi Calm Calm - N/A   Partly Cloudy
7:36 PM 60.8 °F 57.2 °F 88% 29.91 in 10.0 mi Calm Calm - N/A   Partly Cloudy
7:56 PM 60.8 °F 57.2 °F 88% 29.91 in 10.0 mi Calm Calm - N/A   Clear
8:16 PM 60.8 °F 55.4 °F 82% 29.91 in 10.0 mi Calm Calm - N/A   Clear
8:36 PM 60.8 °F 57.2 °F 88% 29.91 in 10.0 mi Calm Calm - N/A   Clear
8:56 PM 60.8 °F 57.2 °F 88% 29.91 in 10.0 mi SW 3.5 mph - N/A   Clear
9:16 PM 59.0 °F 55.4 °F 88% 29.91 in 10.0 mi Calm Calm - N/A   Clear
9:36 PM 57.2 °F 55.4 °F 94% 29.91 in 10.0 mi Calm Calm - N/A   Mostly Cloudy
9:56 PM 60.8 °F 57.2 °F 88% 29.91 in 10.0 mi Calm Calm - N/A   Mostly Cloudy
10:16 PM 60.8 °F 57.2 °F 88% 29.91 in 10.0 mi Calm Calm - N/A   Mostly Cloudy
10:36 PM 59.0 °F 57.2 °F 94% 29.91 in 10.0 mi Calm Calm - N/A   Scattered Clouds
10:56 PM 59.0 °F 55.4 °F 88% 29.92 in 10.0 mi Calm Calm - N/A   Mostly Cloudy
11:16 PM 62.6 °F 60.8 °F 94% 29.92 in 10.0 mi East 5.8 mph - N/A   Overcast
11:36 PM 62.6 °F 60.8 °F 94% 29.91 in 10.0 mi East 8.1 mph - N/A   Overcast
11:56 PM 62.6 °F 60.8 °F 94% 29.92 in 10.0 mi ESE 5.8 mph - N/A   Mostly Cloudy